www.pogodaiklimat.ru

Погода и климат >> Архив погоды >> Индия >> Kozhikode


ПОГОДА в Kozhikode

  • Прогноз погоды в Kozhikode
  • Монитор погоды в Kozhikode
  • Климат города

АРХИВ ПОГОДЫ в Kozhikode

Время (UTC), дата Ветер
(напр.,м/с)
 
Видим.   Явления Облачность Т
(С)
Тd
(С)
f
(%)
Тe
(С)
Тes
(С)
Комфортность P
(гПа)
Po
(гПа)
Тmin
(С)
Tmax
(С)
R
(мм)
S
(см)
15 14.02 штиль 0 4000 м 1/1 600 м
[Sc diur, vesp]
+29.8 +26.7 83 +46 +46 опасность
перегрева
1014.5 1015.0
18 14.02 штиль 0 4000 м 1/1 600 м
[Sc diur, vesp]
+28.8 +24.8 79 +41 +41 опасность
перегрева
1015.6 1016.0
21 14.02 штиль 0 4000 м ясно +26.8 +23.6 83 +37 +37 очень
душно
1014.8 1015.0
00 15.02 штиль 0 4000 м 1/1 600 м
[Sc diur, vesp]
+26.4 +23.5 84 +36 +36 очень
душно
1014.1 1014.0
03 15.02 В 2 10 км ясно +27.8 +21.5 69 +36 +40 очень
душно
1015.8 1016.0 +25.0 +36.6
06 15.02 ЮЗ 2 10 км 1/1 600 м
[Sc diur, vesp]
+33.0 +23.5 58 +44 +61 опасность
перегрева
1016.1 1016.0
09 15.02 штиль 0 10 км ясно +36.4 +24.6 51 +49 +67 опасность
перегрева
1012.5 1013.0
12 15.02 штиль 0 10 км ясно +31.8 +24.7 66 +45 +46 опасность
перегрева
1011.9 1012.0 +37.2
15 15.02 СЗ 1 4000 м ясно +29.4 +25.1 78 +43 +43 опасность
перегрева
1013.9 1014.0
18 15.02 штиль 0 4000 м ясно +28.4 +25.0 82 +41 +41 опасность
перегрева
1014.9 1015.0
21 15.02 штиль 0 4000 м ясно +26.8 +24.2 86 +37 +37 очень
душно
1013.0 1013.0
00 16.02 штиль 0 4000 м ясно +25.6 +22.9 85 +34 +34 очень
душно
1012.4 1012.0
03 16.02 штиль 0 10 км ясно +26.8 +20.4 68 +33 +39 очень
душно
1014.3 1014.0 +24.0 +37.2
06 16.02 ЮЗ 1 10 км ясно +33.4 +20.6 47 +40 +61 опасность
солнечного
удара
1014.3 1014.0
09 16.02 З 2 10 км ясно +35.0 +22.6 49 +45 +58 опасность
перегрева
1010.1 1010.0
12 16.02 З 3 10 км ясно +32.8 +23.6 59 +44 +45 опасность
перегрева
1009.2 1009.0 +37.0
15 16.02 З 2 4000 м ясно +28.4 +20.5 62 +35 +35 очень
душно
1011.4 1011.0
18 16.02 штиль 0 4000 м ясно +26.8 +21.7 74 +34 +34 очень
душно
1012.0 1012.0
21 16.02 ЮВ 2 4000 м ясно +26.4 +17.1 57 +30 +30 душно 1011.2 1011.0
00 17.02 В 2 4000 м ясно +24.0 +16.1 61 +27 +27 жарко 1011.4 1011.0
03 17.02 ЮВ 2 10 км ясно +25.6 +14.6 51 +28 +33 жарко 1014.2 1014.0 +22.6 +37.0
06 17.02 штиль 0 10 км ясно +32.0 +17.3 41 +36 +59 опасность
солнечного
удара
1013.9 1014.0
09 17.02 З 2 10 км ясно +34.4 +20.4 44 +41 +56 опасность
перегрева
1009.7 1010.0
12 17.02 З 2 10 км ясно +32.8 +22.0 53 +41 +42 опасность
перегрева
1008.6 1009.0 +36.1
15 17.02 З 1 4000 м 1/0
[Ci fib]
+28.2 +21.1 65 +35 +35 очень
душно
1010.7 1011.0
18 17.02 штиль 0 4000 м 1/0
[Ci fib]
+26.0 +21.8 78 +33 +33 очень
душно
1012.8 1013.0
21 17.02 ЮВ 2 4000 м 1/1 600 м
[Sc diur, vesp]
+27.6 +23.5 78 +37 +37 очень
душно
1012.0 1012.0
00 18.02 штиль 0 4000 м 1/1 600 м
[Sc diur, vesp]
+24.6 +21.3 82 +31 +31 очень
душно
1012.3 1012.0
03 18.02 В 2 10 км 1/1 600 м
[Sc diur, vesp]
+26.4 +20.0 68 +32 +37 очень
душно
1014.4 1014.0 +23.4 +36.1
06 18.02 В 2 10 км 3/3 600 м
[Sc diur, vesp]
+31.6 +21.9 56 +40 +54 опасность
солнечного
удара
1015.0 1015.0
09 18.02 З 1 10 км ясно +33.4 +23.3 56 +44 +60 опасность
перегрева
1011.4 1011.0
12 18.02 З 2 10 км ясно +32.2 +23.6 61 +44 +45 опасность
перегрева
1010.9 1011.0 +34.4
15 18.02 штиль 0 4000 м ясно +28.6 +22.1 68 +37 +37 очень
душно
1013.6 1014.0
18 18.02 В 1 4000 м ясно +26.6 +22.1 76 +34 +34 очень
душно
1015.2 1015.0
21 18.02 штиль 0 4000 м ясно +25.2 +21.9 82 +32 +32 очень
душно
1013.3 1013.0
00 19.02 В 1 4000 м 6/1 600 м
[Sc diur, vesp Ac trans]
+24.0 +21.0 83 +30 +30 очень
душно
1013.1 1013.0
03 19.02 В 1 10 км 8/3 600 м
[Sc diur, vesp Ac trans Ci sp]
+25.6 +19.7 70 +31 +34 очень
душно
1015.2 1015.0 +23.2 +34.4
06 19.02 З 2 10 км 5/1 600 м
[Sc diur, vesp Ac trans Ci sp]
+33.0 +24.5 61 +46 +59 опасность
перегрева
1014.5 1015.0
09 19.02 ЮЗ 3 10 км 3/1 600 м
[Sc diur, vesp Ci fib]
+34.2 +25.2 60 +48 +58 опасность
перегрева
1010.8 1011.0
12 19.02 З 2 10 км 1/0
[Ci fib]
+31.6 +25.1 69 +46 +46 опасность
перегрева
1010.0 1010.0 +34.9
15 19.02 Ю 2 4000 м 1/1 600 м
[Sc diur, vesp]
+28.8 +23.6 74 +39 +39 очень
душно
1012.3 1012.0
18 19.02 ЮЗ 2 4000 м 1/0
[Ci fib]
+27.8 +23.7 78 +38 +38 очень
душно
1013.8 1014.0
21 19.02 штиль 0 4000 м 1/0
[Ci fib]
+26.0 +22.8 83 +35 +35 очень
душно
1012.2 1012.0
00 20.02 В 2 4000 м 1/0
[Ci fib]
+24.8 +22.4 87 +32 +32 очень
душно
1011.7 1012.0
03 20.02 В 2 10 км 6/3 600 м
[Sc diur, vesp Ac trans Ci sp]
+25.8 +22.2 81 +34 +36 очень
душно
1013.6 1014.0 +24.2 +34.9
06 20.02 штиль 0 10 км 8/4 600 м
[Sc diur, vesp Ci fib]
+32.0 +24.9 66 +45 +58 опасность
перегрева
1013.7 1014.0
09 20.02 З 2 10 км 8/3 600 м
[Sc Ci sp]
+34.2 +25.8 62 +50 +58 опасность
перегрева
1009.9 1010.0
12 20.02 З 3 4000 м 10/3 600 м
[Sc Ac trans Cs]
+31.0 +24.4 68 +43 +44 опасность
перегрева
1009.3 1009.0 +34.4
15 20.02 З 3 4000 м 10/4 600 м
[Sc Ac trans Cs]
+29.0 +24.1 75 +40 +40 очень
душно
1011.2 1011.0
18 20.02 СЗ 2 4000 м 9/4 600 м
[Sc Ac trans Cs]
+28.4 +24.4 79 +40 +40 очень
душно
1011.7 1012.0
21 20.02 штиль 0 4000 м 9/4 600 м
[Sc Ac trans Cs]
+27.4 +23.9 81 +38 +38 очень
душно
1010.2 1010.0
00 21.02 штиль 0 4000 м 9/4 600 м
[Sc Ac trans Cs]
+27.0 +24.1 84 +37 +37 очень
душно
1010.3 1010.0
03 21.02 штиль 0 10 км 6/3 600 м
[Sc diur, vesp Ci sp]
+27.4 +24.2 83 +38 +42 очень
душно
1012.5 1013.0 +25.9 +34.4
06 21.02 З 2 10 км 5/0
[Ci sp]
+33.2 +24.7 61 +46 +62 опасность
перегрева
1012.6 1013.0
09 21.02 З 2 10 км 10/3 600 м
[Cu Sc Ac trans Cs]
+34.2 +25.1 59 +48 +53 опасность
перегрева
1009.4 1009.0
12 21.02 СЗ 2 10 км 8/1 600 м
[Sc Ci sp]
+31.2 +25.6 72 +46 +47 опасность
перегрева
1008.1 1008.0 +35.7

 

Местоположение метеостанции Kozhikode (Kerala, Индия): широта 11.25 долгота 75.78 высота над уровнем моря 5 м.

В архиве по умолчанию представлена погода в Kozhikode за последнюю неделю. Архивные данные за месяц целиком и за предыдущие месяцы, начиная с января 2011 года, Вы можете получить, выбрав интересующий диапазон дат из раскрывающегося списка и нажав кнопку "Ввод!".

Внимание! Время в таблицах - всемирное. Для получения местного времени необходимо прибавить поправку, которая в Kozhikode равна 5.5 ч.

Смотрите также архив погоды в соседних городах и на ближайших метеорологических станциях:

Погода в Karipur (Kerala, Индия) (23 км)
Погода в Cannanore (Kerala, Индия) (81 км)
Погода в Thrissur (Kerala, Индия) (94 км)
Погода в Udhagamandalam (Tamil Nadu, Индия) (105 км)
Погода в Palakkad (Kerala, Индия) (109 км)
Погода в Coonoor (Tamil Nadu, Индия) (112 км)
Погода в Madikeri (Karnataka, Индия) (130 км)
Погода в Kochi (Kerala, Индия) (140 км)
Погода в Coimbatore (Tamil Nadu, Индия) (141 км)
Погода в Chamarajnagar (Karnataka, Индия) (146 км)

Пояснения к столбцам:

Ветер - указаны скорость ветра в м/с - средняя за 10 мин, порывы в срок и между сроками (в фигурных скобках) и направление, откуда дует ветер: С - северный, СВ - северо-восточный, В - восточный, ЮВ - юго-восточный, Ю - южный, ЮЗ - юго-западный, З - западный, СЗ - северо-западный.
Видимость - горизонтальная дальность видимости в метрах или километрах. При видимости от 1 до 10 км при отсутствии осадков обычно наблюдается дымка, при ухудшении видимости до 1 км и менее - туман. В сухую погоду видимость может ухудшаться дымом, пылью или мглою.
Явления - указаны атмосферные явления, наблюдавшиеся в срок или в последний час перед сроком; фигурными скобками обозначены явления, наблюдавшиеся между сроками (за 1-3 часа до срока); квадратными скобками обозначены град или гололедные отложения с указанием их диаметра в мм.
Облачность - указаны через наклонную черту общая и нижняя облачность в баллах и высота нижней границы облаков в метрах; квадратными скобками обозначены формы облаков: Ci - перистые, Cs - перисто-слоистые, Cc - перисто-кучевые, Ac - высококучевые, As - высокослоистые, Sc - слоисто-кучевые, Ns - слоисто-дождевые, Cu - кучевые, Cb - кучево-дождевые. Подробнее классификацию облаков см. в Атласе облаков (PDF).
T - Температура воздуха - температура, измеренная на высоте 2 м над землей.
Td - Температура точки росы - температура, при понижении до которой содержащийся в воздухе водяной пар достигнет насыщения.
f - Относительная влажность воздуха - влажноcть воздуха, измеренная на высоте 2 м над землей.
Te - Эффективная температура - температура, которую ощущает одетый по сезону человек в тени. Характеристика душности погоды. При расчете учитывается влияние влажности воздуха и скорости ветра на теплоощущения человека.
Tes - Эффективная температура на солнце - температура, которую ощущает человек, с поправкой на солнечный нагрев. Характеристика знойности погоды. Зависит от высоты солнца над горизонтом, облачности и скорости ветра. Ночью, в пасмурную погоду, а также при ветре 12 м/с и более поправка равна нулю.
P - Атмосферное давление - приведенное к уровню моря атмосферное давление.
Po - Атмосферное давление - измеренное на уровне метеостанции атмосферное давление.
Tmin - Минимальная температура - минимум температуры воздуха на высоте 2 м над землей.
Tmax - Максимальная температура - максимум температуры воздуха на высоте 2 м над землей.
R - Количество осадков - Количество выпавших осадков, мм. При наведении курсора мыши на число - период времени, за который выпало указанное количество осадков.
S - Снежный покров - Высота снежного покрова, см. При наведении курсора мыши на число - состояние снежного покрова и степень покрытия местности в баллах.